Location: Songkhla
(7.2000°N, 100.6000°E)
Time: 21:09:25
(UTC+07:00)

Yuri Rocket - Pass Details

Date: 16 April 2026
Orbit: 567 x 1898 km, 28.2° (Epoch: 20 May)

Event Time Altitude Azimuth Distance (km) Brightness Sun altitude
Rises 19:04:54 0° 306° (NW) 2,762 7.8 -10.3°
Reaches altitude 10° 19:07:11 10° 311° (NW) 1,845 6.5 -10.8°
Maximum altitude 19:11:12 52° 29° (NNE) 720 3.3 -11.8°
Enters shadow 19:14:15 18° 100° (E) 1,508 4.4 -12.6°
